AirNav   Everest Fuels
 
 1015 users online  

CT09 Heckler Field Airport
Coventry, Connecticut, USA

GOING TO COVENTRY?


FAA INFORMATION EFFECTIVE 21 MAY 2020

Location

FAA Identifier: CT09
Lat/Long: 41-48-10.3540N 072-23-30.2970W
41-48.172567N 072-23.504950W
41.8028761,-72.3917492
(estimated)
Elevation: 793 ft. / 241.7 m (surveyed)
Variation: 15W (1985)
From city: 4 miles NW of COVENTRY, CT
Time zone: UTC -4 (UTC -5 during Standard Time)
Zip code: 06238

Airport Operations

Airport use: Private use. Permission required prior to landing
Activation date: 11/1961
Control tower: no
ARTCC: BOSTON CENTER
FSS: BRIDGEPORT FLIGHT SERVICE STATION
Attendance: UNATNDD
Wind indicator: yes
Segmented circle: no

Airport Communications

WX ASOS at IJD (10 nm E): 133.675 (860-456-8839)
WX ASOS at HFD (12 nm W): PHONE 860-527-5837
WX ASOS at BDL (15 nm NW): PHONE 860-386-3480
WX AWOS-AV at CT71 (19 nm W): 129.825

Nearby radio navigation aids

VOR radial/distance  VOR name  Freq  Var
HFDr049/12.0HARTFORD VOR/DME114.9013W
ORWr324/23.0NORWICH VOR/DME110.0014W
BAFr160/26.0BARNES VORTAC113.0014W
PUTr263/26.1PUTNAM VOR/DME117.4014W
GONr346/32.2GROTON VOR/DME110.8514W
MADr038/32.3MADISON VOR/DME110.4013W
CTRr153/38.4CHESTER VOR/DME115.1013W

Airport Services

Airframe service: NONE
Powerplant service: NONE

Runway Information

Runway 16/34

Dimensions: 1360 x 120 ft. / 415 x 37 m
Surface: turf
RUNWAY 16  RUNWAY 34
Traffic pattern: leftleft
Obstructions: 20 ft. treefence

Airport Ownership and Management from official FAA records

Ownership: Privately-owned
Owner: ALFRED D HECKLER
RFD 4,BOX 203
COVENTRY, CT 06238
Phone 203-742-6519
Manager: ALFRED D HECKLER
RFD 4,BOX 203
COVENTRY, CT 06238
Phone 203-742-6519

Additional Remarks

FOR CD CTC YANKEE APCH AT 860-386-3597

Instrument Procedures

There are no published instrument procedures at CT09.

Some nearby airports with instrument procedures:

KIJD - Windham Airport (10 nm E)
KHFD - Hartford-Brainard Airport (12 nm W)
KBDL - Bradley International Airport (15 nm NW)
KLZD - Danielson Airport (22 nm E)
4B8 - Robertson Field Airport (22 nm W)
 
Loc | Ops | Rwys | IFR | FBO | Links
Com | Nav | Svcs | Stats | Notes

Silver City Flying Club
 
Area around CT09 (Heckler Field Airport)
 
Road maps at: MapQuest Bing Google
 
Aerial photo
No photo
 
Sectional chart

 
Airport distance calculator
Flying to Heckler Field Airport? Find the distance to fly.

From to CT09

Sunrise and sunset
Times for 28-May-2020
 Local
(UTC-4)
 Zulu
(UTC)
Morning civil twilight04:4608:46
Sunrise05:2009:20
Sunset20:1400:14
Evening civil twilight20:4700:47

Current date and time
Zulu (UTC)  29-May-2020 00:43:36
Local (UTC-4)  28-May-2020 20:43:36
 
METAR
KIJD 
10nm E 
290011Z AUTO 18007KT 3SM -RA BR BKN008 OVC014 20/19 A3013 RMK AO2 P0001 T02000194
KHFD 
12nm W 
282353Z 17010G15KT 3SM -RA BR OVC009 21/19 A3010 RMK AO2 RAE2258B46 CIG 007V013 SLP193 P0001 60001 T02110194 10250 20211 56012
KBDL 
15nm NW 
282351Z 18012KT 10SM BKN009 OVC016 22/19 A3009 RMK AO2 SLP188 DZE22 SHRA DSNT E-S P0000 60000 T02170194 10261 20217 56014
TAF
KBDL 
15nm NW 
282030Z 2821/2924 20014G18KT P6SM VCSH SCT025 OVC045 FM282300 19010KT P6SM VCSH BKN025 OVC045 FM290400 18006KT 4SM BR VCSH OVC006 FM291000 18005KT P6SM VCSH OVC008 FM291400 19005KT P6SM OVC015 FM291800 19007KT P6SM VCSH BKN025
NOTAMs
Click for the latest NOTAMs
NOTAMs are issued by the DoD/FAA and will open in a separate window not controlled by AirNav.

 

 
 

Would you like to see your business listed on this page?

 If your business provides an interesting product or service to pilots, flight crews, aircraft, or users of the Heckler Field Airport, you should consider listing it here.  To start the listing process, click on the button below
 
Add a business
 

Other Pages about Heckler Field Airport

Update a link
 
Copyright © AirNav, LLC. All rights reserved. Privacy Policy  Contact